This is the latest recevied weather packets stored in our database for station/object dl1wer-13. If no packets are shown the sender has not sent any weather packets the latest 10 day(s).
| Time | Temp. | Humidity | Pressure | Rain* | Wind** | Luminosity | Snow |
|---|---|---|---|---|---|---|---|
| 1778224224 | 10° C | 90% | 1042.4 hPa | 0 mm | - | - | - |
| 1778223624 | 10° C | 93% | 1042.6 hPa | 0 mm | - | - | - |
| 1778223024 | 9.44° C | 98% | 1042.5 hPa | 0 mm | - | - | - |
| 1778222424 | 9.44° C | 99% | 1042.6 hPa | 0 mm | - | - | - |
| 1778221824 | 8.33° C | 99% | 1042.7 hPa | 0 mm | - | - | - |
| 1778221224 | 7.78° C | 99% | 1042.6 hPa | 0 mm | - | - | - |
| 1778220624 | 7.22° C | 99% | 1042.3 hPa | 0 mm | - | - | - |
| 1778220026 | 6.67° C | 99% | 1042.6 hPa | 0 mm | - | - | - |
| 1778219425 | 6.11° C | 99% | 1042.3 hPa | 0 mm | - | - | - |
| 1778218824 | 5.56° C | 99% | 1042.3 hPa | 0 mm | - | - | - |
| 1778218225 | 5.56° C | 99% | 1042.3 hPa | 0 mm | - | - | - |
| 1778217624 | 5.56° C | 99% | 1042.4 hPa | 0 mm | - | - | - |
| 1778217024 | 5° C | 99% | 1042.2 hPa | 0 mm | - | - | - |
| 1778216425 | 5° C | 99% | 1042 hPa | 0 mm | - | - | - |
| 1778215824 | 5° C | 99% | 1041.8 hPa | 0 mm | - | - | - |
| 1778215224 | 5° C | 99% | 1041.8 hPa | 0 mm | - | - | - |
| 1778214625 | 5° C | 99% | 1041.8 hPa | 0 mm | - | - | - |
| 1778214024 | 5° C | 99% | 1041.7 hPa | 0 mm | - | - | - |
| 1778213424 | 5° C | 99% | 1041.6 hPa | 0 mm | - | - | - |
| 1778212824 | 5° C | 99% | 1041.5 hPa | 0 mm | - | - | - |
| 1778212224 | 5° C | 99% | 1041.9 hPa | 0 mm | - | - | - |
| 1778211624 | 5° C | 99% | 1041.6 hPa | 0 mm | - | - | - |
| 1778211025 | 5° C | 99% | 1041.7 hPa | 0 mm | - | - | - |
| 1778210424 | 5° C | 99% | 1041.5 hPa | 0 mm | - | - | - |
| 1778209825 | 5° C | 99% | 1041.6 hPa | 0 mm | - | - | - |
* Rain latest hour (hover to see other rain measurements)
** Current wind speed in m/s (hover to see current wind gust speed)